Current weather by "City, St" or "zip code"  
 
Advertise Here

Current Conditions: Mesa / Falcon Field, AZ

Fair


57.0 F

Last Updated on Jan 27 2021, 12:54 pm MST
Humidity: 32%
Wind Speed: NE 9.2 mph
Barometer 30.20 in
Dewpoint: 27.0 F
Visibility: 10.00 mi
Precip: --
Heat Index: NA
Wind Chill: 55 F
Current conditions at:

Mesa / Falcon Field, AZ (KFFZ)

Lat: 33.46667 Lon: 111.73333

Local Radar Image active severe weather and emergency alerts image image weather storm and storm spotter reports image weather observation monitoring service image
Local
Radar
Active
Alerts
Storm Reports Obs
Monitoring

Sign-up For Email & Text Message Weather Alert Notification Services


Advertise Here

Observation History for Mesa / Falcon Field, AZ


Time Wind
(mph)
Vis
(mi)
Weather Precip (in) Temperature (F) Relative
Humidity
Wind
Chill
(F)
Heat
Index
(F)
Pressure
Air Dwpt altimeter
(in)
sea level
(mb)
Rmks
12:54 pm MST NE 9.2 10.00 Fair -- 57.0 27.0 32% 55 NA 30.20 1022.0
11:54 am MST NE 8.1 10.00 Fair -- 55.0 27.0 34% 53 NA 30.23 1023.0
10:54 am MST NE 15.0 10.00 Fair -- 51.0 28.0 41% 46 NA 30.26 1023.9
9:54 am MST NE 12.7 10.00 Fair -- 46.0 30.9 56% 40 NA 30.28 1024.8
8:54 am MST N 11.5 10.00 Fair -- 42.0 30.0 62% 36 NA 30.28 1024.9
7:54 am MST NE 10.4 10.00 Fair -- 40.0 30.0 68% 33 NA 30.26 1024.4
6:54 am MST NE 5.8 10.00 Fair -- 39.0 30.9 73% 35 NA 30.25 1024.0
5:54 am MST N 8.1 10.00 Fair -- 38.0 30.9 76% 32 NA 30.23 1023.3
4:54 am MST N 6.9 10.00 Fair -- 39.0 32.0 76% 34 NA 30.22 1022.8
3:54 am MST N 8.1 10.00 Fair -- 40.0 32.0 73% 35 NA 30.23 1023.1
2:54 am MST N 8.1 10.00 Fair -- 40.0 33.1 77% 35 NA 30.23 1023.0
1:54 am MST N 6.9 10.00 Fair -- 41.0 34.0 76% 36 NA 30.23 1023.1
12:54 am MST N 0.0 10.00 Fair -- 41.0 34.0 76% NA NA 30.22 1022.7
11:54 pm MST NE 8.1 10.00 Fair -- 42.0 35.1 76% 37 NA 30.22 1022.8
10:54 pm MST NE 8.1 10.00 Partly Cloudy -- 44.0 34.0 68% 39 NA 30.20 1022.1
9:54 pm MST N 4.6 10.00 A Few Clouds -- 43.0 34.0 71% 40 NA 30.19 1021.9
8:54 pm MST N 10.4 10.00 Fair -- 44.0 34.0 68% 38 NA 30.14 1020.2
7:54 pm MST NE 9.2 10.00 A Few Clouds -- 45.0 34.0 66% 40 NA 30.14 1020.0
6:54 pm MST N 6.9 10.00 Fair -- 46.0 33.1 61% 42 NA 30.10 1018.9
5:54 pm MST N 6.9 10.00 Mostly Cloudy -- 47.0 33.1 59% 44 NA 30.08 1017.9
4:54 pm MST N 8.1 10.00 Overcast -- 49.0 30.9 50% 46 NA 30.05 1017.1
3:54 pm MST W 6.9 10.00 Overcast -- 49.0 28.0 44% 46 NA 30.04 1016.5
2:54 pm MST SW 10.4 10.00 Overcast -- 49.0 30.0 48% 45 NA 30.01 1015.5
1:54 pm MST 5.8 10.00 Mostly Cloudy Trace 48.0 30.9 52% 45 NA 29.98 1014.7

Regional Weather Observation


Phoenix, Phoenix-Deer Valley Municipal Airport, AZ (KDVT)

Fair
55.0 F

Phoenix, Phoenix Sky Harbor International Airport, AZ (KPHX)

A Few Clouds
56.0 F

Mesa / Falcon Field, AZ (KFFZ)

Fair
57.0 F

Chandler, Chandler Municipal Airport, AZ (KCHD)

Clear
59.0 F

Glendale, Glendale Municipal Airport, AZ (KGEU)

Clear
57.0 F

Phoenix-Mesa Gateway Airport, AZ (KIWA)

Clear
57.0 F